Погода в Горбатовке

Россия / Нижегородская область     56°15′43″N   43°44′01″E
темп.,
°C
ветер,
м/с
пор.,
м/с
влажн.,
%
обл.,
%
осадки,
мм/ч
давл.,
гПа
погр.,
м
14 июня, пн
пн1400:00+15юз23945 0.0 101064
03:00+14юз24945 0.0 101284
06:00+16юз248730 0.0 1013162
09:00+21зюз34682 0.0 1014635
12:00+24юз345613 0.5 10141352
15:00+25юз34500 0.5 10141666
18:00+24з23580 0.1 1014563
21:00+20ююз1171100 0.2 101419
15 июня, вт
вт1500:00+19юз117361 0.0 101422
03:00+18зюз117857 0.0 101412
06:00+20ююз007438 0.0 1014101
09:00+24ююв115915 0.0 1014582
12:00+26ююв224732 0.6 10131841
15:00+26ююв334832 0.6 10121294
18:00+25ююв23573 0.0 1011870
21:00+20ююв248086 0.3 101185
16 июня, ср
ср1600:00+18ю118599 0.0 101027
03:00+18ю1187100 0.0 100911
06:00+20св008097 0.0 100999
09:00+24вюв116464 0.0 1008608
12:00+27з235090 0.0 10081744
15:00+20ссз4883100 1.6 1009452
18:00+19ссз612723 0.0 1011851
21:00+16ссз23830 0.0 101489
17 июня, чт
чт1700:00+15ссз4115795 0.0 1015361
03:00+13сз410593 0.0 1017283
06:00+14ссз49620 0.0 1019342
09:00+18ссз56480 0.0 1020812
12:00+20ссз57400 0.0 10211768
15:00+21ссз58401 0.0 10212009
18:00+21ссз494510 0.0 10221226
21:00+16зсз36672 0.0 1023127
18 июня, пт
пт1800:00+14сз24760 0.0 102488
03:00+13сз22760 0.0 102545
06:00+16сз23680 0.0 1026165
09:00+21сз235097 0.0 1026732
12:00+24сз24390 0.0 10261789
15:00+25зсз24385 0.0 10251818
18:00+24зсз145035 0.0 1024931
21:00+20зюз22719 0.0 102524